This is the latest recevied weather packets stored in our database for station/object KE8RXN. If no packets are shown the sender has not sent any weather packets the latest 10 day(s).
| Time | Temp. | Humidity | Pressure | Rain* | Wind** | Luminosity | Snow |
|---|---|---|---|---|---|---|---|
| 1777957298 | 13.89° C | 79% | 1003.5 hPa | 0 mm | - | 0 W/m² | - |
| 1777956993 | 13.89° C | 78% | 1003.4 hPa | 0 mm | - | 0 W/m² | - |
| 1777956691 | 13.89° C | 78% | 1003.1 hPa | 0 mm | - | 0 W/m² | - |
| 1777956388 | 13.89° C | 78% | 1002.9 hPa | 0 mm | - | 0 W/m² | - |
| 1777956084 | 14.44° C | 78% | 1002.9 hPa | 0 mm | - | 0 W/m² | - |
| 1777955780 | 14.44° C | 78% | 1003.3 hPa | 0 mm | - | 0 W/m² | - |
| 1777955477 | 14.44° C | 78% | 1003.3 hPa | 0 mm | - | 0 W/m² | - |
| 1777955173 | 14.44° C | 78% | 1003.4 hPa | 0 mm | - | 0 W/m² | - |
| 1777954871 | 14.44° C | 77% | 1003.1 hPa | 0 mm | - | 0 W/m² | - |
| 1777954567 | 14.44° C | 77% | 1003.2 hPa | 0 mm | - | 0 W/m² | - |
| 1777954265 | 15° C | 77% | 1003.1 hPa | 0 mm | - | 0 W/m² | - |
| 1777953962 | 15° C | 76% | 1003.1 hPa | 0 mm | - | 0 W/m² | - |
| 1777953659 | 15.56° C | 75% | 1003.2 hPa | 0 mm | - | 0 W/m² | - |
| 1777953355 | 15.56° C | 75% | 1003.2 hPa | 0 mm | - | 0 W/m² | - |
| 1777953052 | 16.11° C | 74% | 1003.2 hPa | 0 mm | - | 0 W/m² | - |
| 1777952748 | 16.67° C | 73% | 1003.3 hPa | 0 mm | - | 0 W/m² | - |
| 1777952445 | 16.67° C | 73% | 1003.1 hPa | 0 mm | - | 0 W/m² | - |
| 1777952142 | 16.67° C | 73% | 1003.1 hPa | 0 mm | - | 0 W/m² | - |
| 1777951840 | 16.67° C | 72% | 1003.1 hPa | 0 mm | - | 0 W/m² | - |
| 1777951538 | 17.22° C | 71% | 1003 hPa | 0 mm | - | 0 W/m² | - |
| 1777951234 | 17.22° C | 71% | 1002.6 hPa | 0 mm | - | 0 W/m² | - |
| 1777950932 | 17.22° C | 71% | 1002.1 hPa | 0 mm | - | 0 W/m² | - |
| 1777950628 | 17.22° C | 72% | 1002.1 hPa | 0 mm | - | 0 W/m² | - |
| 1777950325 | 17.22° C | 72% | 1001.9 hPa | 0 mm | - | 0 W/m² | - |
| 1777950021 | 16.67° C | 73% | 1001.9 hPa | 0 mm | - | 0 W/m² | - |
* Rain latest hour (hover to see other rain measurements)
** Current wind speed in m/s (hover to see current wind gust speed)